TFFR

TFFR 150630Z AUTO 08006KT 9999 FEW027 SCT038 BKN072 26/23 Q1013 NOSIG

Avertissement:
Informations données à titre indicatif et susceptible de modification sans préavis.
Ne pas utiliser pour la navigation aérienne.

TFFR

Credit photo: Konstantin von Wedeldtaedt

Pointe à Pitre Le Raizet

Latitude: 16° 15' 55.1" N
Longitude: 61° 31' 54.51" W
Elevation: 35' ft. / 11 m
ICAO: TFFR
Longueur piste: 3508,40 mètres
UTC: -4

piste 11/29

Dimensions: 3508m x 45 m
Heading piste 12: 116°
Heading piste 30: 296°

Fréquences radio

ATIS: 127.6
Sol: 121.85
Tour: 118.4
Approche: 119.05, 121.3, 129.07, 129.08

VOR

POINTE A PITRE VOR-DME 0.5 NM
PPR freq: 112.90 W 269°

METAR

QNH: 1013

Altitude: 29.91

Température: 26°C

Point de rosée: 23°C

partager...
Share on FacebookShare on Google+Share on LinkedInTweet about this on TwitterEmail this to someonePrint this pageBuffer this page
error: Survol interdit !